[[{"header":{"parameterUnit":"m.s-1","parameterCategory":1,"la1":30.2991,"la2":30.254,"lo1":-89.0895,"lo2":-89.0444,"dy":0.0017,"dx":0.0017,"nx":28,"ny":28,"refTime":"2024-12-13T09:00:00:Z","depth":0,"parameterNumber":2,"parameterNumberName":"U-component_of_WINDS"},"data":[0,0,0,0,0,0,0,0,0,0,0,0,0,0,0,0,0,0,0,0,0,0,0,0,0,0,0,0,0,0,0,0,0,0,0,0,0,0,0,0,0,0,0,0,0,0,0,0,0,0,0,0,0,0,0,0,0,0,-5.353,-5.3531,0,-5.3567,-5.3567,-5.3567,-5.3426,-5.3422,-5.3418,-5.3414,-5.3455,-5.346,-5.3465,0,0,0,0,0,0,0,0,0,0,0,0,0,-5.3341,-5.3346,-5.353,-5.3531,-5.3531,-5.3567,-5.3567,-5.3568,-5.3427,-5.3422,-5.3417,-5.3412,-5.3453,-5.3459,-5.3465,0,0,0,0,0,0,0,0,0,0,0,0,0,-5.3405,-5.3347,-5.353,-5.3465,-5.3459,-5.3566,-5.3567,-5.3568,-5.3428,-5.3422,-5.3415,-5.3409,-5.3451,-5.3459,-5.3466,-5.3639,0,0,-5.3489,-5.3492,0,0,0,0,0,0,0,0,-5.3402,-5.3412,-5.3474,-5.347,-5.3464,-5.3485,-5.3515,-5.3592,-5.3429,-5.344,-5.3414,-5.3406,-5.347,-5.3476,-5.3497,-5.3641,-5.3643,-5.349,-5.3494,-5.3498,-5.35,0,0,0,0,0,0,0,-5.3398,-5.341,-5.3545,-5.3475,-5.3469,-5.3435,-5.3437,-5.3529,-5.349,-5.3439,-5.3428,-5.3434,-5.3466,-5.349,-5.3497,-5.3643,-5.349,-5.3496,-5.3501,-5.3504,-5.393,-5.3936,0,0,0,0,0,0,-5.3401,-5.3407,-5.3543,-5.3546,-5.3416,-5.3443,-5.3446,-5.3485,-5.3489,-5.3483,-5.344,-5.3428,-5.348,-5.3488,-5.3498,-5.3699,-5.3498,-5.3505,-5.3509,-5.3923,-5.3931,-5.3938,0,0,0,0,0,0,-5.3398,-5.3415,-5.3542,-5.3474,-5.3487,-5.3453,-5.3498,-5.3489,-5.3512,-5.349,-5.3482,-5.3471,-5.3475,-5.3487,-5.3604,-5.3699,-5.3508,-5.3515,-5.3915,-5.3925,-5.3935,-5.4105,0,0,0,0,0,0,-5.3393,-5.3414,-5.3479,-5.3476,-5.3491,-5.3648,-5.3504,-5.3494,-5.3525,-5.3509,-5.3517,-5.3512,-5.3471,-5.3594,-5.3612,-5.3706,-5.3521,-5.3906,-5.392,-5.3932,-5.4091,-5.412,-5.4144,0,0,0,0,0,-5.3387,-5.3526,-5.3483,-5.35,-5.3571,-5.3653,-5.3662,-5.3611,-5.3533,-5.3598,-5.3584,-5.3512,-5.3686,-5.3607,-5.3626,-5.3724,-5.39,-5.3916,-5.3931,-5.4079,-5.4114,-5.4144,0,0,0,0,0,0,-5.3543,-5.3525,-5.3477,-5.3619,-5.3639,-5.3629,-5.371,-5.3651,-5.3694,-5.3678,-5.3614,-5.3617,-5.3746,-5.3746,-5.3659,-5.3891,-5.3779,-5.3799,-5.3885,-5.3919,-5.3945,-5.3942,-5.3527,0,0,0,0,0,-5.3594,-5.3661,-5.3642,-5.377,-5.3782,-5.3745,-5.3778,-5.3737,-5.3755,-5.3763,-5.3757,-5.3779,-5.3838,-5.3878,-5.3932,-5.409,-5.4089,-5.4167,-5.4193,-5.4215,-5.4234,-5.4317,-5.4351,-5.3989,-5.3989,-5.3988,0,0,-5.37,-5.3698,-5.3745,-5.3801,-5.3811,-5.3883,-5.3752,-5.3834,-5.3886,-5.3776,-5.3886,-5.3883,-5.3902,-5.404,-5.4101,-5.4045,-5.4333,-5.4235,-5.4253,-5.4259,-5.4336,-5.437,-5.4401,-5.3999,-5.3997,-5.3996,0,0,-5.3929,-5.3935,-5.4042,-5.4054,-5.4071,-5.4045,-5.4071,-5.407,-5.4063,-5.4172,-5.4091,-5.4153,-5.4256,-5.4273,-5.4296,-5.4531,-5.4467,-5.455,-5.4691,-5.4773,-5.4801,-5.4826,-5.491,-5.4941,-5.4568,-5.4569,-5.4569,0,-5.406,-5.4163,-5.4104,-5.4191,-5.4218,-5.412,-5.4228,-5.4243,-5.4278,-5.4299,-5.4235,-5.4362,-5.4369,-5.4509,-5.4567,-5.4588,-5.4616,-5.4549,-5.4802,-5.4826,-5.4849,-5.4928,-5.4959,-5.4579,-5.4578,-5.4577,-5.4576,0,-5.4322,-5.4395,-5.4479,-5.4513,-5.4549,-5.4647,-5.4604,-5.4648,-5.4604,-5.4585,-5.4697,-5.4701,-5.4753,-5.4784,-5.4742,-5.4919,-5.4883,-5.4812,-5.4699,-5.4894,-5.4967,-5.4997,-5.4593,-5.459,-5.4587,-5.4584,0,0,-5.4651,-5.465,-5.4682,-5.4696,-5.4707,-5.4762,-5.4855,-5.4905,-5.4944,-5.4971,-5.5047,-5.5136,-5.507,-5.5095,-5.5055,-5.5127,-5.5313,-5.5046,-5.5046,-5.5095,-5.5507,-5.5561,-5.5597,-5.527,-5.5276,-5.528,-5.5505,0,-5.4876,-5.5033,-5.4983,-5.5142,-5.5208,-5.5116,-5.5197,-5.5213,-5.5198,-5.5253,-5.5237,-5.5301,-5.5208,-5.5223,-5.529,-5.5276,-5.5395,-5.5259,-5.5341,-5.5345,-5.5339,-5.5635,-5.5692,-5.5904,-5.5534,-5.5538,-5.5542,0,-5.5159,-5.5195,-5.5361,-5.536,-5.5386,-5.5459,-5.55,-5.5554,-5.557,-5.5554,-5.5583,-5.5527,-5.5618,-5.5505,-5.563,-5.5539,-5.557,-5.5568,-5.5575,-5.5581,-5.5455,-5.5648,-5.5971,-5.6003,-5.5587,-5.5583,-5.558,0,-5.5382,-5.5473,-5.5583,-5.5598,-5.5599,-5.5653,-5.5656,-5.5666,-5.5699,-5.5735,-5.5756,-5.5803,-5.5829,-5.5867,-5.5826,-5.5748,-5.5958,-5.5841,-5.5947,-5.5949,-5.5996,-5.5993,-5.6328,-5.6017,-5.6016,-5.6016,-5.6015,0,-5.5638,-5.5743,-5.5683,-5.5751,-5.5866,-5.5807,-5.5923,-5.5916,-5.5926,-5.5991,-5.5915,-5.5978,-5.592,-5.5979,-5.5947,-5.6056,-5.6068,-5.6058,-5.6048,-5.6065,-5.6066,-5.6084,-5.6068,-5.6024,-5.6022,-5.602,-5.6019,0,-5.5906,-5.587,-5.5984,-5.5976,-5.5976,-5.6061,-5.6055,-5.6118,-5.6097,-5.6181,-5.6197,-5.6165,-5.623,-5.6192,-5.6259,-5.6238,-5.6379,-5.6349,-5.6373,-5.6365,-5.6473,-5.6463,-5.683,-5.6875,-5.6536,-5.6539,-5.6542,0,-5.6072,-5.615,-5.615,-5.6187,-5.6195,-5.6257,-5.629,-5.6236,-5.6273,-5.6297,-5.6358,-5.6416,-5.6459,-5.6567,-5.655,-5.6601,-5.6571,-5.6696,-5.6579,-5.6592,-5.6573,-5.6568,-5.6576,-5.672,-5.6724,-5.6728,-5.673,0,-5.6369,-5.6347,-5.6396,-5.644,-5.648,-5.6512,-5.6538,-5.6574,-5.652,-5.6566,-5.663,-5.6664,-5.6731,-5.6789,-5.6832,-5.6836,-5.6775,-5.6767,-5.6794,-5.6812,-5.6822,-5.6817,-5.6437,-5.6759,-5.6756,-5.6754,-5.6753,-5.6751,-5.6591,-5.6655,-5.6665,-5.6722,-5.6736,-5.6761,-5.682,-5.6806,-5.6858,-5.6908,-5.6873,-5.6949,-5.6963,-5.7014,-5.7027,-5.7086,-5.7035,-5.7075,-5.7085,-5.7096,-5.711,-5.6813,-5.7094,-5.7093,-5.7092,-5.7091,-5.7091,0,-5.6883,-5.6885,-5.6938,-5.6975,-5.7021,-5.6958,-5.6983,-5.7025,-5.7093,-5.7111,-5.7154,-5.7228,-5.7285,-5.7272,-5.7323,-5.7373,-5.7346,-5.7388,-5.7384,-5.7386,-5.7152,-5.7123,-5.7409,-5.7409,-5.7409,-5.7409,-5.7409,-5.7409,-5.7041,-5.7147,-5.7127,-5.7239,-5.7239,-5.7312,-5.7332,-5.7356,-5.7369,-5.7455,-5.7501,-5.7492,-5.7498,-5.7548,-5.7597,-5.7592,-5.7614,-5.7667,-5.7652,-5.7434,-5.7402,-5.7372,-5.7345,-5.7672,-5.7672,-5.7879,-5.7881,-5.7883]},{"header":{"parameterUnit":"m.s-1","parameterCategory":1,"la1":30.2991,"la2":30.254,"lo1":-89.0895,"lo2":-89.0444,"dy":0.0017,"dx":0.0017,"nx":28,"ny":28,"refTime":"2024-12-13T09:00:00:Z","depth":0,"parameterNumber":3,"parameterNumberName":"V-component_of_WINDS"},"data":[0,0,0,0,0,0,0,0,0,0,0,0,0,0,0,0,0,0,0,0,0,0,0,0,0,0,0,0,0,0,0,0,0,0,0,0,0,0,0,0,0,0,0,0,0,0,0,0,0,0,0,0,0,0,0,0,0,0,-1.2777,-1.2777,0,-1.2826,-1.2827,-1.2827,-1.2858,-1.2858,-1.2858,-1.2858,-1.2907,-1.2908,-1.2909,0,0,0,0,0,0,0,0,0,0,0,0,0,-1.2706,-1.2707,-1.2777,-1.2777,-1.2778,-1.2826,-1.2827,-1.2827,-1.2858,-1.2858,-1.2858,-1.2858,-1.2907,-1.2908,-1.2909,0,0,0,0,0,0,0,0,0,0,0,0,0,-1.2744,-1.2707,-1.2777,-1.2799,-1.2801,-1.2826,-1.2827,-1.2828,-1.2858,-1.2858,-1.2858,-1.2858,-1.2906,-1.2908,-1.291,-1.2916,0,0,-1.2915,-1.2916,0,0,0,0,0,0,0,0,-1.2742,-1.2746,-1.2795,-1.2797,-1.28,-1.2836,-1.282,-1.2857,-1.2857,-1.2836,-1.2858,-1.2858,-1.2883,-1.2887,-1.2895,-1.2918,-1.292,-1.2915,-1.2916,-1.2917,-1.2917,0,0,0,0,0,0,0,-1.2739,-1.2744,-1.2796,-1.2796,-1.2799,-1.2805,-1.2811,-1.2827,-1.2858,-1.2838,-1.284,-1.2846,-1.2885,-1.2894,-1.2897,-1.2921,-1.2915,-1.2917,-1.2918,-1.2918,-1.2948,-1.2948,0,0,0,0,0,0,-1.2733,-1.2742,-1.2795,-1.2798,-1.2771,-1.2806,-1.2813,-1.2824,-1.2858,-1.2863,-1.2846,-1.2847,-1.2891,-1.2895,-1.2899,-1.2907,-1.2917,-1.2919,-1.292,-1.2948,-1.2948,-1.2948,0,0,0,0,0,0,-1.2731,-1.2738,-1.2793,-1.2771,-1.2778,-1.2807,-1.282,-1.2825,-1.2834,-1.2863,-1.2869,-1.2849,-1.2891,-1.2896,-1.2911,-1.2909,-1.2919,-1.2921,-1.2949,-1.2948,-1.2948,-1.2923,0,0,0,0,0,0,-1.2729,-1.2737,-1.274,-1.277,-1.2779,-1.2805,-1.282,-1.2826,-1.2837,-1.284,-1.2868,-1.2873,-1.2892,-1.2908,-1.2912,-1.2911,-1.2922,-1.2949,-1.2949,-1.2948,-1.2924,-1.2922,-1.292,0,0,0,0,0,-1.2727,-1.2731,-1.274,-1.2746,-1.2784,-1.2805,-1.2809,-1.2831,-1.2837,-1.284,-1.2858,-1.2872,-1.2908,-1.2909,-1.2915,-1.2914,-1.2949,-1.2949,-1.2948,-1.2925,-1.2922,-1.292,0,0,0,0,0,0,-1.27,-1.2736,-1.2746,-1.2761,-1.2779,-1.281,-1.2814,-1.2827,-1.2845,-1.2846,-1.2871,-1.2877,-1.2889,-1.2903,-1.2904,-1.292,-1.293,-1.2931,-1.2911,-1.2908,-1.2906,-1.2902,-1.2924,0,0,0,0,0,-1.2696,-1.271,-1.274,-1.275,-1.2759,-1.2785,-1.2795,-1.2809,-1.283,-1.2838,-1.2857,-1.2876,-1.2891,-1.29,-1.2916,-1.2926,-1.2932,-1.2928,-1.2926,-1.2924,-1.2924,-1.2928,-1.2927,-1.2946,-1.2946,-1.2946,0,0,-1.2688,-1.2709,-1.2716,-1.2746,-1.2762,-1.2775,-1.2791,-1.2805,-1.2815,-1.284,-1.2854,-1.2869,-1.2891,-1.2903,-1.2909,-1.2915,-1.292,-1.2923,-1.2921,-1.2923,-1.2928,-1.2926,-1.2924,-1.2946,-1.2946,-1.2946,0,0,-1.2679,-1.2697,-1.2707,-1.2722,-1.2746,-1.2763,-1.2765,-1.2793,-1.2804,-1.2819,-1.2837,-1.2848,-1.2875,-1.2889,-1.29,-1.2894,-1.2907,-1.2899,-1.2887,-1.2891,-1.289,-1.2889,-1.2885,-1.2884,-1.2899,-1.2899,-1.2899,0,-1.2665,-1.2687,-1.271,-1.2722,-1.2733,-1.2756,-1.2765,-1.2779,-1.2806,-1.2813,-1.2819,-1.2852,-1.2868,-1.2883,-1.2881,-1.289,-1.2892,-1.2896,-1.2888,-1.2887,-1.2887,-1.2884,-1.2882,-1.2897,-1.2897,-1.2898,-1.2898,0,-1.2668,-1.2683,-1.2687,-1.2713,-1.2725,-1.2736,-1.2759,-1.2768,-1.2781,-1.2797,-1.2811,-1.2831,-1.2851,-1.2855,-1.2868,-1.2871,-1.2874,-1.2884,-1.2894,-1.2883,-1.2881,-1.288,-1.2895,-1.2896,-1.2896,-1.2897,0,0,-1.2646,-1.2683,-1.2684,-1.2695,-1.2723,-1.2734,-1.2744,-1.2763,-1.277,-1.2788,-1.2796,-1.2817,-1.2826,-1.2838,-1.2853,-1.2856,-1.2849,-1.2866,-1.2867,-1.2861,-1.2851,-1.2843,-1.2842,-1.2857,-1.2857,-1.2857,-1.2849,0,-1.2641,-1.2662,-1.2681,-1.2695,-1.2707,-1.2728,-1.2736,-1.2753,-1.2768,-1.278,-1.2795,-1.2809,-1.282,-1.2828,-1.2832,-1.2849,-1.2847,-1.285,-1.2865,-1.2865,-1.2858,-1.2841,-1.2833,-1.2824,-1.2848,-1.2848,-1.2848,0,-1.2639,-1.2655,-1.2669,-1.2693,-1.2699,-1.2707,-1.2725,-1.2736,-1.2755,-1.2765,-1.2777,-1.2793,-1.2803,-1.2812,-1.2827,-1.2828,-1.2835,-1.2844,-1.2844,-1.2846,-1.2856,-1.2841,-1.2822,-1.282,-1.2847,-1.2847,-1.2847,0,-1.262,-1.2645,-1.2656,-1.2665,-1.2694,-1.2699,-1.2711,-1.273,-1.2739,-1.2754,-1.276,-1.2777,-1.2786,-1.2797,-1.2816,-1.2821,-1.2828,-1.2839,-1.2835,-1.2835,-1.2836,-1.2835,-1.2816,-1.2841,-1.2841,-1.2841,-1.2841,0,-1.2612,-1.262,-1.2648,-1.2655,-1.2664,-1.2685,-1.2693,-1.2706,-1.2723,-1.2732,-1.275,-1.2758,-1.2782,-1.2793,-1.2807,-1.2816,-1.282,-1.2828,-1.2831,-1.2826,-1.2824,-1.283,-1.2831,-1.2841,-1.2841,-1.2841,-1.2841,0,-1.2592,-1.2612,-1.2626,-1.2651,-1.2657,-1.2662,-1.2683,-1.269,-1.2704,-1.2716,-1.2719,-1.2742,-1.2755,-1.2775,-1.2794,-1.2803,-1.2809,-1.2816,-1.2803,-1.2805,-1.28,-1.28,-1.2784,-1.2782,-1.2809,-1.2808,-1.2808,0,-1.2586,-1.2592,-1.2618,-1.2625,-1.2636,-1.2648,-1.2657,-1.2678,-1.2686,-1.2707,-1.2711,-1.2725,-1.2738,-1.2757,-1.2775,-1.2789,-1.2796,-1.2789,-1.2798,-1.2791,-1.2794,-1.2793,-1.2793,-1.2787,-1.2786,-1.2786,-1.2786,0,-1.2573,-1.2581,-1.2594,-1.261,-1.262,-1.2633,-1.2647,-1.2652,-1.2675,-1.2684,-1.2697,-1.2707,-1.2725,-1.2739,-1.2755,-1.2767,-1.2779,-1.2782,-1.2782,-1.2776,-1.2768,-1.2771,-1.2796,-1.2783,-1.2783,-1.2783,-1.2783,-1.2784,-1.2559,-1.2565,-1.2583,-1.2596,-1.2608,-1.262,-1.2627,-1.2642,-1.2653,-1.267,-1.2681,-1.2693,-1.271,-1.2733,-1.2743,-1.2752,-1.2758,-1.2758,-1.2758,-1.2757,-1.2754,-1.2767,-1.2755,-1.2755,-1.2756,-1.2756,-1.2756,0,-1.2546,-1.2557,-1.2569,-1.2588,-1.2597,-1.2608,-1.2623,-1.2631,-1.2641,-1.2655,-1.2667,-1.2681,-1.2693,-1.2711,-1.2725,-1.2728,-1.2734,-1.2731,-1.2731,-1.2733,-1.2749,-1.2748,-1.2726,-1.2726,-1.2726,-1.2726,-1.2726,-1.2726,-1.254,-1.2549,-1.2559,-1.2574,-1.2586,-1.2598,-1.2605,-1.2616,-1.2627,-1.2642,-1.2652,-1.2664,-1.2679,-1.2693,-1.2705,-1.2709,-1.2713,-1.2708,-1.2714,-1.2729,-1.2732,-1.2735,-1.2733,-1.2709,-1.2709,-1.2697,-1.2697,-1.2697]}]]